TimeCDT,TemperatureF,Dew PointF,Humidity,Sea Level PressureIn,VisibilityMPH,Wind Direction,Wind SpeedMPH,Gust SpeedMPH,PrecipitationIn,Events,Conditions,WindDirDegrees,DateUTC
1:25 AM,77.0,66.9,71,30.06,10.0,South,8.1,18.4,N/A,,Overcast,170,2012-09-12 06:25:00
1:53 AM,75.9,66.9,74,30.00,10.0,SSE,6.9,-,N/A,,Mostly Cloudy,160,2012-09-12 06:53:00
2:05 AM,75.9,66.9,74,30.06,10.0,SSE,5.8,-,N/A,,Scattered Clouds,160,2012-09-12 07:05:00
2:12 AM,75.9,66.9,74,30.06,10.0,SSE,5.8,-,N/A,,Mostly Cloudy,160,2012-09-12 07:12:00
2:53 AM,75.9,66.9,74,29.99,10.0,SSE,6.9,-,N/A,,Overcast,160,2012-09-12 07:53:00
3:53 AM,75.9,68.0,76,29.99,10.0,SSE,8.1,-,N/A,,Overcast,160,2012-09-12 08:53:00
4:53 AM,75.0,68.0,79,29.98,10.0,SSE,6.9,-,N/A,,Mostly Cloudy,160,2012-09-12 09:53:00
5:42 AM,73.9,69.1,85,30.04,10.0,SSE,4.6,-,N/A,,Scattered Clouds,160,2012-09-12 10:42:00
5:53 AM,73.9,69.1,85,29.99,10.0,SSE,4.6,-,N/A,,Mostly Cloudy,150,2012-09-12 10:53:00
6:49 AM,73.4,68.0,83,30.05,10.0,SE,6.9,-,N/A,,Partly Cloudy,140,2012-09-12 11:49:00
6:53 AM,73.9,68.0,82,29.99,10.0,SE,5.8,-,N/A,,Partly Cloudy,140,2012-09-12 11:53:00
7:53 AM,73.0,68.0,84,30.02,8.0,ESE,3.5,-,N/A,,Clear,110,2012-09-12 12:53:00
8:48 AM,75.2,68.0,78,30.09,9.0,South,9.2,-,N/A,,Mostly Cloudy,180,2012-09-12 13:48:00
8:53 AM,75.9,68.0,76,30.04,10.0,SSE,5.8,-,N/A,,Mostly Cloudy,160,2012-09-12 13:53:00
9:37 AM,78.1,68.0,71,30.09,10.0,Variable,6.9,-,N/A,,Mostly Cloudy,0,2012-09-12 14:37:00
9:53 AM,79.0,66.9,66,30.04,10.0,SSE,9.2,-,N/A,,Mostly Cloudy,150,2012-09-12 14:53:00
10:05 AM,79.0,66.9,66,30.10,10.0,SE,6.9,-,N/A,,Scattered Clouds,140,2012-09-12 15:05:00
10:53 AM,82.9,66.9,58,30.05,10.0,SSE,9.2,-,N/A,,Clear,160,2012-09-12 15:53:00
11:53 AM,84.9,66.9,55,30.04,10.0,South,8.1,-,N/A,,Partly Cloudy,170,2012-09-12 16:53:00
12:53 PM,87.1,64.9,48,30.01,10.0,South,9.2,-,N/A,,Clear,170,2012-09-12 17:53:00
1:53 PM,90.0,63.0,40,29.98,10.0,South,8.1,-,N/A,,Scattered Clouds,180,2012-09-12 18:53:00
2:53 PM,93.0,61.0,34,29.96,10.0,Variable,6.9,-,N/A,,Scattered Clouds,0,2012-09-12 19:53:00
4:53 PM,93.9,57.9,30,29.91,10.0,SSE,9.2,-,N/A,,Clear,160,2012-09-12 21:53:00
5:53 PM,93.9,60.1,32,29.91,10.0,SSE,4.6,-,N/A,,Clear,160,2012-09-12 22:53:00
6:53 PM,93.0,61.0,34,29.91,10.0,SSE,6.9,-,N/A,,Clear,150,2012-09-12 23:53:00
7:53 PM,88.0,64.9,46,29.92,10.0,SSE,8.1,19.6,N/A,,Scattered Clouds,150,2012-09-13 00:53:00
8:53 PM,84.9,66.0,53,29.95,10.0,SSE,9.2,-,N/A,,Clear,150,2012-09-13 01:53:00
9:53 PM,84.0,66.9,56,29.97,10.0,SSE,6.9,-,N/A,,Clear,160,2012-09-13 02:53:00
10:53 PM,82.9,68.0,60,29.99,10.0,SSE,8.1,-,N/A,,Clear,160,2012-09-13 03:53:00
11:53 PM,82.0,69.1,65,30.00,10.0,SSE,6.9,-,N/A,,Clear,150,2012-09-13 04:53:00